{"data":{"norad_id":58873,"epoch":"2026-05-24T14:10:55.668576Z","epoch_age_seconds":120553,"freshness":"FRESH","line1":"1 58873U 24019W   26144.59092209  .00006536  00000+0  24683-3 0  9995","line2":"2 58873  42.9995 179.9980 0001624 275.4678  84.5988 15.27579925130699","mean_motion":15.27579925,"eccentricity":0.0001624,"inclination_deg":42.9995,"raan_deg":179.998,"arg_perigee_deg":275.4678,"mean_anomaly_deg":84.5988,"bstar":0.00024683,"rev_number":13069,"period_min":94.266753341891,"perigee_km":481.93506395817,"apogee_km":484.16357727511,"semimajor_km":6861.1863206166,"source":"CELESTRAK","updated_at":"2026-05-25T13:38:18.780177Z"}}